Weather History for KDMW - April, 2013

Change the Weather History Date:

Saturday, April 20, 2013

  Actual Average (KHGR) Record (KHGR)
Temperature  
Mean Temperature 48 °F 54 °F  
Max Temperature 55 °F 65 °F - ()
Min Temperature 42 °F 44 °F - ()
Degree Days  
Heating Degree Days 16 11  
Month to date heating degree days 285  
Since 1 July heating degree days 4917  
Cooling Degree Days 0 1  
Month to date cooling degree days 2  
Year to date cooling degree days 3  
Moisture  
Dew Point 28 °F    
Average Humidity 47    
Maximum Humidity 87    
Minimum Humidity 23    
Precipitation  
Precipitation 0.00 in 0.12 in - ()
Month to date precipitation 2.45  
Year to date precipitation 11.06  
Sea Level Pressure  
Sea Level Pressure 30.07 in    
Wind  
Wind Speed 11 mph (WNW)    
Max Wind Speed 20 mph    
Max Gust Speed 30 mph    
Visibility 10 miles    
Events Rain    
T = Trace of Precipitation, MM = Missing Value Source: NWS Daily Summary

Daily Weather History Graph

Daily Weather History Graph

Search for Another Location

Airport or City:

Trip Planner

Search our weather history database for the weather conditions in past years. The results will help you decide how hot, cold, wet, or windy it might be!

Date:

Astronomy

Apr. 20, 2013 Rise Set
Actual Time 6:23 AM EDT 7:51 PM EDT
Civil Twilight 5:54 AM EDT 8:19 PM EDT
Nautical Twilight 5:21 AM EDT 8:53 PM EDT
Astronomical Twilight 4:45 AM EDT 9:29 PM EDT
Moon 2:34 PM EDT (4/20) 3:10 AM EDT (4/20)
Length of Visible Light 14h 24m
Length of Day
13h 28m
Waxing Gibbous, 71% of the Moon is Illuminated
Apr 20
Waxing Gibbous
Apr 25
Full
May 2
Last Quarter
May 9
New
May 18
First Quarter

Hourly Weather History & Observations

Time (EDT) Temp. Windchill Dew Point Humidity Pressure Visibility Wind Dir Wind Speed Gust Speed Precip Events Conditions
12:10 AM 51.8 °F - 46.4 °F 82% 29.80 in 10.0 mi West 8.1 mph - N/A Rain Light Rain
12:30 AM 51.8 °F - 46.4 °F 82% 29.83 in 10.0 mi West 9.2 mph - N/A Rain Light Rain
2:10 AM 48.2 °F - 44.6 °F 87% 29.81 in 10.0 mi West 5.8 mph - N/A   Overcast
2:30 AM 50.0 °F - 44.6 °F 82% 29.83 in 10.0 mi West 8.1 mph - N/A   Overcast
2:50 AM 50.0 °F - 42.8 °F 76% 29.83 in 10.0 mi WNW 11.5 mph 17.3 mph N/A Rain Light Rain
3:10 AM 50.0 °F - 42.8 °F 76% 29.84 in 10.0 mi WNW 12.7 mph 17.3 mph N/A   Overcast
3:30 AM 48.2 °F - 42.8 °F 82% 29.84 in 10.0 mi NW 5.8 mph - N/A   Overcast
3:50 AM 48.2 °F - 41.0 °F 76% 29.87 in 10.0 mi WNW 9.2 mph 17.3 mph N/A   Mostly Cloudy
4:10 AM 48.2 °F - 39.2 °F 71% 29.89 in 10.0 mi WNW 11.5 mph 19.6 mph N/A   Mostly Cloudy
4:30 AM 46.4 °F 41.9 °F 37.4 °F 71% 29.90 in 10.0 mi WNW 9.2 mph - N/A   Scattered Clouds
4:50 AM 46.4 °F 41.9 °F 37.4 °F 71% 29.91 in 10.0 mi West 9.2 mph - N/A   Clear
5:10 AM 46.4 °F 41.1 °F 37.4 °F 71% 29.91 in 10.0 mi WNW 11.5 mph 16.1 mph N/A   Mostly Cloudy
5:30 AM 46.4 °F 41.5 °F 35.6 °F 66% 29.92 in 10.0 mi WNW 10.4 mph 18.4 mph N/A   Overcast
5:50 AM 46.4 °F 41.9 °F 37.4 °F 71% 29.92 in 10.0 mi WNW 9.2 mph 16.1 mph N/A   Mostly Cloudy
6:10 AM 46.4 °F 40.7 °F 33.8 °F 62% 29.94 in 10.0 mi WNW 12.7 mph 20.7 mph N/A   Scattered Clouds
6:30 AM 44.6 °F 39.7 °F 32.0 °F 61% 29.95 in 10.0 mi WNW 9.2 mph 20.7 mph N/A   Scattered Clouds
6:50 AM 44.6 °F 39.2 °F 33.8 °F 66% 29.97 in 10.0 mi WNW 10.4 mph 20.7 mph N/A   Clear
7:10 AM 44.6 °F 38.8 °F 30.2 °F 57% 29.98 in 10.0 mi WNW 11.5 mph 17.3 mph N/A   Clear
7:30 AM 44.6 °F 40.7 °F 30.2 °F 57% 29.99 in 10.0 mi NW 6.9 mph 16.1 mph N/A   Clear
7:50 AM 42.8 °F 35.8 °F 30.2 °F 61% 30.00 in 10.0 mi WNW 13.8 mph 23.0 mph N/A   Clear
8:10 AM 42.8 °F 38.0 °F 28.4 °F 57% 30.01 in 10.0 mi West 8.1 mph - N/A   Clear
8:30 AM 44.6 °F 38.4 °F 30.2 °F 57% 30.00 in 10.0 mi West 12.7 mph - N/A   Clear
8:50 AM 44.6 °F 37.2 °F 26.6 °F 49% 30.01 in 10.0 mi WNW 17.3 mph 24.2 mph N/A   Clear
9:10 AM 44.6 °F 37.8 °F 28.4 °F 53% 30.02 in 10.0 mi West 15.0 mph 23.0 mph N/A   Clear
9:30 AM 46.4 °F 39.5 °F 32.0 °F 57% 30.02 in 10.0 mi West 17.3 mph 26.5 mph N/A   Clear
9:50 AM 46.4 °F 39.2 °F 33.8 °F 62% 30.04 in 10.0 mi West 18.4 mph 24.2 mph N/A   Clear
10:10 AM 46.4 °F 39.5 °F 33.8 °F 62% 30.05 in 10.0 mi WNW 17.3 mph 25.3 mph N/A   Clear
10:30 AM 48.2 °F - 26.6 °F 43% 30.06 in 10.0 mi West 18.4 mph 29.9 mph N/A   Clear
10:50 AM 48.2 °F - 24.8 °F 40% 30.07 in 10.0 mi WNW 17.3 mph 26.5 mph N/A   Scattered Clouds
11:10 AM 50.0 °F - 24.8 °F 37% 30.07 in 10.0 mi West 18.4 mph 25.3 mph N/A   Scattered Clouds
11:30 AM 50.0 °F - 24.8 °F 37% 30.07 in 10.0 mi West 18.4 mph 25.3 mph N/A   Scattered Clouds
11:50 AM 51.8 °F - 23.0 °F 33% 30.07 in 10.0 mi WNW 15.0 mph 23.0 mph N/A   Scattered Clouds
12:10 PM 51.8 °F - 23.0 °F 33% 30.08 in 10.0 mi WNW 19.6 mph 26.5 mph N/A   Scattered Clouds
12:30 PM 51.8 °F - 23.0 °F 33% 30.08 in 10.0 mi WNW 15.0 mph 24.2 mph N/A   Scattered Clouds
12:50 PM 51.8 °F - 23.0 °F 33% 30.07 in 10.0 mi West 15.0 mph 24.2 mph N/A   Scattered Clouds
1:10 PM 53.6 °F - 24.8 °F 33% 30.07 in 10.0 mi West 12.7 mph 23.0 mph N/A   Scattered Clouds
1:30 PM 53.6 °F - 24.8 °F 33% 30.08 in 10.0 mi West 12.7 mph 18.4 mph N/A   Mostly Cloudy
1:50 PM 53.6 °F - 24.8 °F 33% 30.08 in 10.0 mi WNW 11.5 mph 20.7 mph N/A   Mostly Cloudy
2:10 PM 53.6 °F - 23.0 °F 30% 30.08 in 10.0 mi WNW 13.8 mph 20.7 mph N/A   Scattered Clouds
2:30 PM 53.6 °F - 24.8 °F 33% 30.08 in 10.0 mi WNW 15.0 mph 19.6 mph N/A   Scattered Clouds
2:50 PM 55.4 °F - 24.8 °F 31% 30.08 in 10.0 mi West 19.6 mph 28.8 mph N/A   Scattered Clouds
3:10 PM 55.4 °F - 21.2 °F 26% 30.09 in 10.0 mi WNW 15.0 mph 24.2 mph N/A   Clear
3:30 PM 55.4 °F - 21.2 °F 26% 30.09 in 10.0 mi West 17.3 mph 24.2 mph N/A   Scattered Clouds
3:50 PM 55.4 °F - 19.4 °F 25% 30.10 in 10.0 mi West 11.5 mph 21.9 mph N/A   Scattered Clouds
4:10 PM 55.4 °F - 21.2 °F 26% 30.10 in 10.0 mi WNW 15.0 mph 25.3 mph N/A   Scattered Clouds
4:30 PM 55.4 °F - 21.2 °F 26% 30.11 in 10.0 mi WNW 13.8 mph 21.9 mph N/A   Scattered Clouds
4:50 PM 53.6 °F - 19.4 °F 26% 30.12 in 10.0 mi West 15.0 mph 24.2 mph N/A   Clear
5:10 PM 55.4 °F - 21.2 °F 26% 30.13 in 10.0 mi WNW 15.0 mph 23.0 mph N/A   Clear
5:30 PM 55.4 °F - 19.4 °F 25% 30.14 in 10.0 mi WNW 13.8 mph 20.7 mph N/A   Clear
5:50 PM 55.4 °F - 19.4 °F 25% 30.15 in 10.0 mi WNW 9.2 mph 17.3 mph N/A   Clear
6:10 PM 53.6 °F - 17.6 °F 24% 30.16 in 10.0 mi NW 13.8 mph 17.3 mph N/A   Clear
6:30 PM 55.4 °F - 17.6 °F 23% 30.17 in 10.0 mi WNW 16.1 mph 23.0 mph N/A   Clear
6:50 PM 53.6 °F - 17.6 °F 24% 30.18 in 10.0 mi WNW 12.7 mph 20.7 mph N/A   Clear
7:10 PM 53.6 °F - 17.6 °F 24% 30.19 in 10.0 mi NW 11.5 mph 18.4 mph N/A   Clear
7:30 PM 51.8 °F - 17.6 °F 26% 30.20 in 10.0 mi NW 6.9 mph - N/A   Clear
7:50 PM 51.8 °F - 17.6 °F 26% 30.21 in 10.0 mi NW 5.8 mph 17.3 mph N/A   Clear
8:10 PM 50.0 °F - 19.4 °F 30% 30.22 in 10.0 mi NNW 3.5 mph - N/A   Clear
8:30 PM 48.2 °F - 19.4 °F 32% 30.24 in 10.0 mi NW 5.8 mph - N/A   Clear
8:50 PM 48.2 °F - 21.2 °F 34% 30.26 in 10.0 mi Calm Calm - N/A   Clear
9:10 PM 46.4 °F - 21.2 °F 37% 30.28 in 10.0 mi Calm Calm - N/A   Clear
9:30 PM 46.4 °F 44.3 °F 21.2 °F 37% 30.29 in 10.0 mi North 4.6 mph - N/A   Clear
9:50 PM 46.4 °F 42.9 °F 23.0 °F 40% 30.30 in 10.0 mi North 6.9 mph - N/A   Clear
10:10 PM 44.6 °F 41.4 °F 23.0 °F 43% 30.31 in 10.0 mi North 5.8 mph - N/A   Clear
10:50 PM 44.6 °F 42.2 °F 24.8 °F 46% 30.33 in 10.0 mi North 4.6 mph - N/A   Clear
11:10 PM 44.6 °F - 24.8 °F 46% 30.33 in 10.0 mi Calm Calm - N/A   Clear
11:30 PM 44.6 °F - 24.8 °F 46% 30.34 in 10.0 mi Calm Calm - N/A   Clear
11:50 PM 42.8 °F 40.1 °F 24.8 °F 49% 30.35 in 10.0 mi North 4.6 mph - N/A   Clear